This is the latest recevied weather packets stored in our database for station/object VE6HFD-WX. If no packets are shown the sender has not sent any weather packets the latest 10 day(s).
| Time | Temp. | Humidity | Pressure | Rain* | Wind** | Luminosity | Snow |
|---|---|---|---|---|---|---|---|
| 1778154366 | 7.78° C | 74% | 1007.8 hPa | 0 mm | - | - | - |
| 1778154036 | 7.78° C | 73% | 1007.9 hPa | 0 mm | - | - | - |
| 1778153736 | 7.78° C | 72% | 1007.9 hPa | 0 mm | - | - | - |
| 1778153436 | 7.78° C | 73% | 1007.9 hPa | 0 mm | - | - | - |
| 1778153106 | 7.78° C | 73% | 1007.9 hPa | 0 mm | - | - | - |
| 1778152806 | 8.33° C | 72% | 1007.8 hPa | 0 mm | - | - | - |
| 1778152476 | 8.33° C | 73% | 1007.8 hPa | 0 mm | - | - | - |
| 1778152176 | 8.33° C | 72% | 1007.7 hPa | 0 mm | - | - | - |
| 1778151846 | 8.33° C | 73% | 1007.8 hPa | 0 mm | - | - | - |
| 1778151516 | 7.78° C | 72% | 1007.8 hPa | 0 mm | - | - | - |
| 1778151186 | 7.78° C | 73% | 1007.9 hPa | 0 mm | - | - | - |
| 1778150886 | 7.78° C | 73% | 1007.9 hPa | 0 mm | - | - | - |
| 1778150556 | 7.22° C | 73% | 1007.9 hPa | 0 mm | - | - | - |
| 1778150226 | 6.67° C | 72% | 1007.9 hPa | 0 mm | - | - | - |
| 1778149926 | 6.67° C | 70% | 1007.8 hPa | 0 mm | - | - | - |
| 1778149596 | 6.67° C | 69% | 1007.9 hPa | 0 mm | - | - | - |
| 1778149266 | 6.11° C | 69% | 1008 hPa | 0 mm | - | - | - |
| 1778148966 | 6.11° C | 68% | 1008.1 hPa | 0 mm | - | - | - |
| 1778148636 | 6.11° C | 66% | 1008.1 hPa | 0 mm | - | - | - |
| 1778148336 | 6.11° C | 65% | 1008.1 hPa | 0 mm | - | - | - |
| 1778148006 | 6.67° C | 69% | 1008.1 hPa | 0 mm | - | - | - |
| 1778147676 | 6.11° C | 67% | 1008.1 hPa | 0 mm | - | - | - |
| 1778147376 | 5.56° C | 66% | 1008.2 hPa | 0 mm | - | - | - |
| 1778147047 | 5° C | 63% | 1008.2 hPa | 0 mm | - | - | - |
| 1778146716 | 5° C | 62% | 1008.2 hPa | 0 mm | - | - | - |
* Rain latest hour (hover to see other rain measurements)
** Current wind speed in m/s (hover to see current wind gust speed)